[[{"header":{"parameterUnit":"m.s-1","parameterCategory":1,"la1":30.2991,"la2":30.254,"lo1":-89.0895,"lo2":-89.0444,"dy":0.0017,"dx":0.0017,"nx":28,"ny":28,"refTime":"2025-09-10T21:00:00:Z","depth":0,"parameterNumber":2,"parameterNumberName":"U-component_of_WINDS"},"data":[0,0,0,0,0,0,0,0,0,0,0,0,0,0,0,0,0,0,0,0,0,0,0,0,0,0,0,0,0,0,0,0,0,0,0,0,0,0,0,0,0,0,0,0,0,0,0,0,0,0,0,0,0,0,0,0,0,0,-4.6972,-4.6971,0,-4.6915,-4.6914,-4.6914,-4.6732,-4.6728,-4.6724,-4.672,-4.6666,-4.6668,-4.667,0,0,0,0,0,0,0,0,0,0,0,0,0,-4.6927,-4.6929,-4.6972,-4.6971,-4.697,-4.6915,-4.6914,-4.6914,-4.6733,-4.6728,-4.6723,-4.6718,-4.6665,-4.6668,-4.6671,0,0,0,0,0,0,0,0,0,0,0,0,0,-4.6916,-4.6929,-4.6972,-4.6873,-4.6864,-4.6915,-4.6914,-4.6913,-4.6734,-4.6728,-4.6722,-4.6716,-4.6664,-4.6668,-4.6671,-4.6814,0,0,-4.6682,-4.6683,0,0,0,0,0,0,0,0,-4.6917,-4.6918,-4.6888,-4.688,-4.687,-4.6824,-4.6878,-4.688,-4.6735,-4.6783,-4.672,-4.6713,-4.6724,-4.6722,-4.6725,-4.6812,-4.681,-4.6682,-4.6684,-4.6686,-4.6687,0,0,0,0,0,0,0,-4.6918,-4.6919,-4.6949,-4.6888,-4.6877,-4.6833,-4.6825,-4.6878,-4.6789,-4.6779,-4.6765,-4.6761,-4.6717,-4.6722,-4.6722,-4.6809,-4.6682,-4.6685,-4.6687,-4.6689,-4.7012,-4.7019,0,0,0,0,0,0,-4.6932,-4.6921,-4.6951,-4.6948,-4.6879,-4.6839,-4.683,-4.6845,-4.6787,-4.6773,-4.6766,-4.6753,-4.6719,-4.6718,-4.672,-4.6884,-4.6686,-4.6689,-4.6691,-4.7006,-4.7014,-4.7021,0,0,0,0,0,0,-4.6932,-4.6937,-4.6953,-4.6931,-4.693,-4.6846,-4.6865,-4.6847,-4.6851,-4.6778,-4.6761,-4.6787,-4.6714,-4.6715,-4.6792,-4.688,-4.6691,-4.6694,-4.6998,-4.7008,-4.7017,-4.7216,0,0,0,0,0,0,-4.6932,-4.6938,-4.699,-4.6933,-4.6931,-4.7026,-4.687,-4.685,-4.6857,-4.6839,-4.6793,-4.6779,-4.6709,-4.6788,-4.6796,-4.6882,-4.6696,-4.699,-4.7003,-4.7014,-4.7201,-4.7231,-4.7257,0,0,0,0,0,-4.6931,-4.7049,-4.6994,-4.6998,-4.6995,-4.7032,-4.7031,-4.6947,-4.6865,-4.6918,-4.6871,-4.6781,-4.6869,-4.6798,-4.6805,-4.6893,-4.6984,-4.6999,-4.7013,-4.7188,-4.7225,-4.7256,0,0,0,0,0,0,-4.7119,-4.7039,-4.6978,-4.7081,-4.7064,-4.7001,-4.7065,-4.6988,-4.6995,-4.6978,-4.6874,-4.6866,-4.6959,-4.6933,-4.6855,-4.7029,-4.6912,-4.6929,-4.7043,-4.7077,-4.7104,-4.7109,-4.6699,0,0,0,0,0,-4.7172,-4.7207,-4.7136,-4.7234,-4.7229,-4.7149,-4.7162,-4.7099,-4.7078,-4.707,-4.7029,-4.7013,-4.7037,-4.7055,-4.7074,-4.7196,-4.7185,-4.7261,-4.7289,-4.7312,-4.7328,-4.7393,-4.7426,-4.7069,-4.7069,-4.7068,0,0,-4.7283,-4.7244,-4.7273,-4.7271,-4.7251,-4.7291,-4.7144,-4.7193,-4.7222,-4.7078,-4.7148,-4.7118,-4.7094,-4.7195,-4.7238,-4.7177,-4.7424,-4.7331,-4.735,-4.7353,-4.7411,-4.7445,-4.7475,-4.7079,-4.7077,-4.7075,0,0,-4.7506,-4.748,-4.7558,-4.7541,-4.7513,-4.7459,-4.7478,-4.7427,-4.7401,-4.747,-4.7363,-4.7397,-4.7441,-4.7428,-4.7428,-4.7648,-4.7566,-4.7657,-4.7803,-4.7867,-4.7895,-4.792,-4.8,-4.8029,-4.7673,-4.7674,-4.7674,0,-4.7648,-4.7702,-4.7609,-4.7665,-4.7668,-4.7539,-4.7619,-4.7608,-4.7587,-4.7593,-4.7525,-4.7578,-4.7552,-4.765,-4.7704,-4.7707,-4.7727,-4.7662,-4.7899,-4.7922,-4.7944,-4.8019,-4.8049,-4.7685,-4.7684,-4.7682,-4.7681,0,-4.7879,-4.7919,-4.7986,-4.7969,-4.798,-4.8048,-4.7967,-4.7989,-4.7926,-4.788,-4.7953,-4.7918,-4.7928,-4.7946,-4.7885,-4.8036,-4.7999,-4.7917,-4.7797,-4.7991,-4.806,-4.8087,-4.7701,-4.7697,-4.7694,-4.7691,0,0,-4.8218,-4.8149,-4.8175,-4.8166,-4.8126,-4.8156,-4.8219,-4.8227,-4.8249,-4.824,-4.8291,-4.8332,-4.8256,-4.8255,-4.8192,-4.8248,-4.8427,-4.8158,-4.8156,-4.8211,-4.8593,-4.8656,-4.869,-4.8372,-4.8377,-4.8381,-4.8595,0,-4.8429,-4.8531,-4.845,-4.8568,-4.8605,-4.8484,-4.8539,-4.8521,-4.8481,-4.8507,-4.8462,-4.8493,-4.8389,-4.8389,-4.8439,-4.8394,-4.8502,-4.8378,-4.842,-4.8423,-4.843,-4.8726,-4.8792,-4.8995,-4.8621,-4.8626,-4.8629,0,-4.8689,-4.8692,-4.8813,-4.8766,-4.8778,-4.8829,-4.8831,-4.8857,-4.8836,-4.8802,-4.8803,-4.8725,-4.8785,-4.8668,-4.875,-4.8667,-4.868,-4.8661,-4.8667,-4.8668,-4.8538,-4.8736,-4.9058,-4.9089,-4.867,-4.8667,-4.8664,0,-4.8926,-4.8959,-4.9036,-4.9032,-4.8979,-4.9018,-4.8998,-4.897,-4.8981,-4.8983,-4.899,-4.9,-4.9006,-4.9016,-4.8943,-4.8864,-4.9036,-4.8912,-4.9012,-4.9014,-4.9053,-4.9052,-4.9383,-4.9061,-4.9061,-4.906,-4.906,0,-4.9171,-4.925,-4.9141,-4.9189,-4.9275,-4.9182,-4.927,-4.9238,-4.9214,-4.9255,-4.9151,-4.9192,-4.9092,-4.9123,-4.9067,-4.9145,-4.9148,-4.9124,-4.9108,-4.9134,-4.9137,-4.9141,-4.9125,-4.9068,-4.9067,-4.9065,-4.9064,0,-4.9449,-4.9379,-4.9455,-4.9399,-4.9387,-4.9453,-4.9406,-4.9448,-4.9401,-4.9454,-4.9461,-4.9388,-4.9419,-4.9347,-4.9368,-4.933,-4.9442,-4.9403,-4.9449,-4.9438,-4.9542,-4.9533,-4.9887,-4.993,-4.9581,-4.9584,-4.9587,0,-4.961,-4.9668,-4.9618,-4.9638,-4.9623,-4.9655,-4.9666,-4.9578,-4.9593,-4.9574,-4.962,-4.9642,-4.9655,-4.9711,-4.966,-4.9676,-4.9638,-4.9761,-4.9639,-4.9664,-4.9641,-4.9638,-4.9644,-4.9786,-4.979,-4.9794,-4.9797,0,-4.9904,-4.9867,-4.9885,-4.9893,-4.9909,-4.9911,-4.9905,-4.9927,-4.9833,-4.9857,-4.9886,-4.9897,-4.9918,-4.9943,-4.9947,-4.9928,-4.9848,-4.9835,-4.9859,-4.9886,-4.9911,-4.99,-4.9518,-4.9828,-4.9824,-4.9822,-4.9821,-4.9819,-5.0128,-5.0175,-5.0148,-5.0172,-5.0159,-5.0157,-5.0195,-5.0153,-5.0176,-5.0186,-5.0133,-5.0175,-5.0154,-5.0152,-5.0141,-5.0174,-5.0119,-5.0153,-5.0162,-5.0172,-5.019,-4.9906,-5.0175,-5.0174,-5.0173,-5.0172,-5.0171,0,-5.0417,-5.0394,-5.0418,-5.0414,-5.0434,-5.0356,-5.0347,-5.0369,-5.0407,-5.0394,-5.0409,-5.0445,-5.0468,-5.0421,-5.0437,-5.0473,-5.0437,-5.048,-5.0477,-5.0474,-5.0238,-5.0216,-5.0509,-5.0509,-5.0509,-5.0509,-5.0509,-5.0509,-5.057,-5.0645,-5.0605,-5.0674,-5.065,-5.069,-5.0692,-5.069,-5.0678,-5.0723,-5.0742,-5.071,-5.0683,-5.0697,-5.0716,-5.0701,-5.0713,-5.0769,-5.0743,-5.0523,-5.049,-5.0459,-5.0437,-5.0772,-5.0773,-5.0975,-5.0977,-5.0979]},{"header":{"parameterUnit":"m.s-1","parameterCategory":1,"la1":30.2991,"la2":30.254,"lo1":-89.0895,"lo2":-89.0444,"dy":0.0017,"dx":0.0017,"nx":28,"ny":28,"refTime":"2025-09-10T21:00:00:Z","depth":0,"parameterNumber":3,"parameterNumberName":"V-component_of_WINDS"},"data":[0,0,0,0,0,0,0,0,0,0,0,0,0,0,0,0,0,0,0,0,0,0,0,0,0,0,0,0,0,0,0,0,0,0,0,0,0,0,0,0,0,0,0,0,0,0,0,0,0,0,0,0,0,0,0,0,0,0,1.3957,1.3957,0,1.3934,1.3934,1.3934,1.3954,1.3955,1.3956,1.3956,1.3929,1.3928,1.3926,0,0,0,0,0,0,0,0,0,0,0,0,0,1.4015,1.4014,1.3957,1.3957,1.3957,1.3934,1.3934,1.3934,1.3954,1.3955,1.3956,1.3957,1.393,1.3928,1.3926,0,0,0,0,0,0,0,0,0,0,0,0,0,1.3991,1.4014,1.3957,1.3964,1.3964,1.3935,1.3934,1.3934,1.3954,1.3955,1.3956,1.3957,1.393,1.3928,1.3926,1.3887,0,0,1.3919,1.3918,0,0,0,0,0,0,0,0,1.3992,1.3989,1.3963,1.3964,1.3964,1.3948,1.3945,1.3918,1.3953,1.3958,1.3956,1.3958,1.3934,1.3932,1.3925,1.3886,1.3885,1.3919,1.3917,1.3916,1.3916,0,0,0,0,0,0,0,1.3994,1.399,1.3948,1.3963,1.3963,1.3967,1.3965,1.394,1.3939,1.3957,1.3959,1.3956,1.3935,1.3927,1.3924,1.3884,1.3919,1.3917,1.3915,1.3915,1.3812,1.381,0,0,0,0,0,0,1.3995,1.3991,1.3949,1.3947,1.3982,1.3965,1.3963,1.3952,1.3939,1.3939,1.3955,1.3957,1.393,1.3927,1.3923,1.3876,1.3917,1.3914,1.3913,1.3813,1.3811,1.381,0,0,0,0,0,0,1.3996,1.3991,1.395,1.397,1.3965,1.3963,1.3951,1.3951,1.3943,1.3938,1.3937,1.3947,1.3931,1.3926,1.3896,1.3876,1.3913,1.3911,1.3815,1.3813,1.3811,1.3782,0,0,0,0,0,0,1.3998,1.3992,1.3977,1.3969,1.3964,1.3924,1.3949,1.395,1.394,1.3942,1.393,1.3929,1.3932,1.3899,1.3894,1.3873,1.391,1.3816,1.3814,1.3811,1.3785,1.3779,1.3775,0,0,0,0,0,1.4,1.397,1.3977,1.3971,1.3946,1.3922,1.3919,1.3923,1.3938,1.3923,1.392,1.393,1.3879,1.3896,1.389,1.3868,1.3818,1.3815,1.3812,1.3787,1.378,1.3775,0,0,0,0,0,0,1.3974,1.3968,1.3976,1.3942,1.3933,1.3926,1.3907,1.3916,1.3901,1.3904,1.3908,1.3906,1.3873,1.3868,1.3887,1.383,1.3851,1.3846,1.3834,1.3828,1.3823,1.3824,1.3908,0,0,0,0,0,1.3964,1.3947,1.3943,1.3913,1.3908,1.3909,1.3899,1.3903,1.3892,1.3888,1.3883,1.3871,1.3853,1.384,1.3823,1.3785,1.3782,1.3767,1.3762,1.3758,1.3753,1.3732,1.3725,1.38,1.38,1.38,0,0,1.3944,1.3939,1.3927,1.3908,1.3901,1.3882,1.3905,1.3883,1.3869,1.3884,1.3855,1.3851,1.3839,1.3804,1.3789,1.3799,1.3733,1.3754,1.3751,1.3748,1.3728,1.3721,1.3715,1.3798,1.3798,1.3798,0,0,1.3897,1.3892,1.3866,1.386,1.3849,1.385,1.3844,1.3836,1.3834,1.3805,1.3817,1.3799,1.3768,1.3758,1.3749,1.37,1.3708,1.3694,1.3667,1.3646,1.364,1.3635,1.3616,1.3609,1.369,1.369,1.369,0,1.3872,1.3844,1.3852,1.383,1.382,1.3836,1.381,1.3802,1.3786,1.3779,1.3791,1.3752,1.3745,1.3708,1.3696,1.3689,1.3681,1.3695,1.3641,1.3636,1.3631,1.3613,1.3606,1.3688,1.3689,1.3689,1.3689,0,1.3814,1.3795,1.3776,1.3761,1.375,1.3726,1.3729,1.3717,1.3722,1.3721,1.3692,1.3684,1.3665,1.3658,1.3662,1.3621,1.3628,1.364,1.3661,1.3622,1.3605,1.3598,1.3686,1.3686,1.3687,1.3687,0,0,1.3748,1.3739,1.3732,1.3725,1.3716,1.3701,1.3677,1.366,1.3649,1.3638,1.3618,1.3591,1.3603,1.3593,1.3597,1.3579,1.354,1.3594,1.3594,1.3583,1.3493,1.3482,1.3474,1.3546,1.3545,1.3544,1.3493,0,1.3699,1.3659,1.3666,1.3627,1.3608,1.3623,1.3603,1.3594,1.3593,1.3577,1.3576,1.3556,1.3574,1.3568,1.3551,1.3548,1.3521,1.3552,1.3525,1.3524,1.3526,1.3466,1.3454,1.3407,1.3487,1.3486,1.3485,0,1.3637,1.3625,1.3584,1.3578,1.357,1.3552,1.3537,1.3522,1.3512,1.3513,1.3502,1.351,1.3485,1.3508,1.3474,1.3495,1.3485,1.3482,1.348,1.3476,1.3501,1.3458,1.3392,1.3384,1.3475,1.3476,1.3477,0,1.3591,1.3564,1.3537,1.3531,1.3523,1.351,1.3506,1.3498,1.3487,1.3474,1.3467,1.3451,1.3442,1.3429,1.3432,1.3448,1.3396,1.342,1.3395,1.3395,1.3381,1.3382,1.3311,1.3378,1.3378,1.3378,1.3378,0,1.3534,1.3509,1.3516,1.3498,1.347,1.3478,1.3449,1.3447,1.344,1.3421,1.3434,1.3416,1.3422,1.3404,1.3406,1.3377,1.3373,1.3372,1.3372,1.337,1.337,1.3362,1.3364,1.3376,1.3377,1.3377,1.3377,0,1.3477,1.3481,1.3452,1.3448,1.3446,1.3425,1.3421,1.3404,1.3405,1.3382,1.3377,1.3377,1.3357,1.336,1.3337,1.3339,1.3302,1.3307,1.3305,1.3306,1.328,1.3282,1.32,1.3189,1.3265,1.3264,1.3263,0,1.344,1.3421,1.3415,1.3404,1.34,1.3382,1.3372,1.338,1.3368,1.3357,1.3341,1.3323,1.3308,1.3276,1.3273,1.3256,1.326,1.3233,1.3257,1.3255,1.3258,1.3258,1.3256,1.3227,1.3226,1.3225,1.3225,0,1.3374,1.3377,1.3362,1.3349,1.3336,1.3326,1.3316,1.3306,1.3313,1.3299,1.328,1.3269,1.3247,1.3228,1.3212,1.3207,1.3216,1.3218,1.3211,1.3207,1.3206,1.3204,1.329,1.3219,1.3219,1.322,1.322,1.322,1.3324,1.3308,1.3301,1.3285,1.3279,1.3269,1.3254,1.3253,1.3237,1.322,1.3226,1.3203,1.3195,1.3175,1.3168,1.315,1.316,1.315,1.3147,1.3144,1.3141,1.321,1.3147,1.3148,1.3148,1.3148,1.3148,0,1.3257,1.3254,1.3239,1.3226,1.3213,1.3225,1.3215,1.3203,1.3183,1.3175,1.3161,1.3139,1.3121,1.3118,1.3101,1.3087,1.3091,1.3082,1.3082,1.308,1.3134,1.3141,1.3079,1.3079,1.3079,1.3079,1.3079,1.3079,1.3221,1.3193,1.3196,1.3165,1.3162,1.3141,1.3134,1.3126,1.3119,1.3094,1.308,1.3079,1.3072,1.3055,1.3039,1.3038,1.303,1.302,1.302,1.307,1.3077,1.3083,1.309,1.3018,1.3018,1.2969,1.2968,1.2968]}]]